This is the latest recevied weather packets stored in our database for station/object W4DEX-2. If no packets are shown the sender has not sent any weather packets the latest 10 day(s).
| Time | Temp. | Humidity | Pressure | Rain* | Wind** | Luminosity | Snow |
|---|---|---|---|---|---|---|---|
| 1777679702 | 12.78° C | 74% | 1011.5 hPa | 0 mm | 4.92 m/s, 172° | - | - |
| 1777679402 | 12.78° C | 73% | 1011.6 hPa | 0 mm | 4.92 m/s, 177° | - | - |
| 1777678802 | 13.33° C | 72% | 1011.4 hPa | 0 mm | 5.36 m/s, 176° | - | - |
| 1777678502 | 13.33° C | 72% | 1011.4 hPa | 0 mm | 4.92 m/s, 174° | - | - |
| 1777678202 | 13.33° C | 72% | 1011.4 hPa | 0 mm | 5.36 m/s, 175° | - | - |
| 1777677302 | 13.33° C | 71% | 1011.5 hPa | 0 mm | 4.92 m/s, 172° | - | - |
| 1777677002 | 13.33° C | 71% | 1011.6 hPa | 0 mm | 4.92 m/s, 175° | - | - |
| 1777676102 | 13.33° C | 69% | 1011.7 hPa | 0 mm | 5.36 m/s, 176° | - | - |
| 1777675802 | 13.33° C | 69% | 1011.6 hPa | 0 mm | 4.92 m/s, 174° | - | - |
| 1777674902 | 13.89° C | 68% | 1011.8 hPa | 0 mm | 4.92 m/s, 176° | - | - |
| 1777674603 | 13.89° C | 67% | 1011.8 hPa | 0 mm | 5.36 m/s, 174° | - | - |
| 1777674304 | 13.89° C | 67% | 1011.9 hPa | 0 mm | 4.92 m/s, 177° | - | - |
| 1777674004 | 13.89° C | 65% | 1011.8 hPa | 0 mm | 4.92 m/s, 174° | - | - |
| 1777673703 | 14.44° C | 64% | 1011.8 hPa | 0 mm | 5.36 m/s, 178° | - | - |
| 1777673402 | 14.44° C | 62% | 1011.7 hPa | 0 mm | 4.92 m/s, 178° | - | - |
| 1777673102 | 13.89° C | 61% | 1011.9 hPa | 0 mm | 4.47 m/s, 178° | - | - |
| 1777672802 | 13.89° C | 62% | 1011.7 hPa | 0 mm | 5.36 m/s, 177° | - | - |
| 1777672502 | 15° C | 62% | 1012.1 hPa | 0 mm | 4.92 m/s, 178° | - | - |
| 1777672203 | 14.44° C | 62% | 1011.7 hPa | 0 mm | 4.92 m/s, 176° | - | - |
| 1777671002 | 13.89° C | 63% | 1011.9 hPa | 0 mm | 4.92 m/s, 176° | - | - |
| 1777670702 | 13.33° C | 63% | 1012 hPa | 0 mm | 5.81 m/s, 175° | - | - |
| 1777670102 | 13.33° C | 63% | 1011.9 hPa | 0 mm | 5.36 m/s, 178° | - | - |
| 1777669802 | 13.33° C | 63% | 1012.2 hPa | 0 mm | 4.92 m/s, 176° | - | - |
| 1777669502 | 13.33° C | 62% | 1012.4 hPa | 0 mm | 5.36 m/s, 170° | - | - |
| 1777669202 | 13.89° C | 62% | 1012.2 hPa | 0 mm | 4.92 m/s, 176° | - | - |
* Rain latest hour (hover to see other rain measurements)
** Current wind speed in m/s (hover to see current wind gust speed)